Regional Weather Roundup
Issued by NWS Burlington, VT

Home | Current Version | Previous Version | Text Only | Print | Product List | Glossary On
Versions: 1 2 3 4 5 6 7 8 9 10 11 12 13 14 15 16 17 18 19 20 21 22 23 24 25 26 27 28 29 30 31 32 33 34 35 36 37 38 39 40 41 42 43 44 45 46 47 48 49 50
000
ASUS41 KBTV 231830
RWRBTV
VERMONT REGIONAL WEATHER ROUNDUP
NATIONAL WEATHER SERVICE BURLINGTON VT
200 PM EDT SAT SEP 23 2017

NOTE: "FAIR" INDICATES FEW OR NO CLOUDS BELOW 12,000 FEET WITH NO
SIGNIFICANT WEATHER AND/OR OBSTRUCTIONS TO VISIBILITY.

* THESE REPORTS ARE NOT UNDER NWS QUALITY CONTROL AND/OR DO NOT
  REPORT WEATHER SUCH AS PRECIPITATION AND FOG.

VTZ001>019-231900-
_____VERMONT_____


CITY           SKY/WX    TMP DP  RH WIND       PRES   REMARKS
BURLINGTON     PTSUNNY   83  47  28 VRB3      30.06F
6HR MIN TEMP:  58; 6HR MAX TEMP:  83;

MONTPELIER     SUNNY     78  54  43 NE5       30.13F
6HR MIN TEMP:  50; 6HR MAX TEMP:  78;

MORRISVILLE    SUNNY     78  53  41 CALM      30.09F
6HR MIN TEMP:  46; 6HR MAX TEMP:  79;

ST. JOHNSBURY*   N/A     79  53  40 MISG      30.05F
6HR MIN TEMP:  48; 6HR MAX TEMP:  79;

LYNDONVILLE*   FAIR      80  55  41 CALM      30.10F
6HR MIN TEMP:  47; 6HR MAX TEMP:  79;

MIDDLEBURY*    FAIR      80  54  40 CALM      30.07F
6HR MIN TEMP:  51; 6HR MAX TEMP:  80;

RUTLAND*       SUNNY     79  53  40 NW6       30.09S
6HR MIN TEMP:  52; 6HR MAX TEMP:  79;

SPRINGFIELD    SUNNY     84  50  30 VRB3      30.05F
6HR MIN TEMP:  53; 6HR MAX TEMP:  84;

HIGHGATE*      FAIR      81  55  41 CALM      30.06S
6HR MIN TEMP:  55; 6HR MAX TEMP:  80;

NEWPORT*       FAIR      79  57  48 W3        30.09S
6HR MIN TEMP:  49; 6HR MAX TEMP:  80;

BENNINGTON     SUNNY     79  55  43 W7        30.08S
6HR MIN TEMP:  55; 6HR MAX TEMP:  79;

SUTTON*          N/A     81 N/A N/A MISG        N/A
ISLAND POND*     N/A     81 N/A N/A W10         N/A
GALLUP MILLS*    N/A     81 N/A N/A MISG        N/A
UNION VILLAGE*   N/A     82 N/A N/A MISG        N/A
MT. MANSFIELD*   N/A     70 N/A N/A NW16        N/A

_____LAKE CHAMPLAIN_____


CITY           SKY/WX    TMP DP  RH WIND       PRES   REMARKS
BURTON ISLAND*   N/A     73  59  60 SW2         N/A
COLCHESTER RF*   N/A     70  63  78 S8          N/A
DIAMOND ISL*     N/A     72  52  49 SW8         N/A

$$

NYZ007-026>031-035-052-083-087-231900-
_____NORTHERN NEW YORK_____


CITY           SKY/WX    TMP DP  RH WIND       PRES   REMARKS
PLATTSBURGH    SUNNY     76  52  43 SE8       30.06F
6HR MIN TEMP:  56; 6HR MAX TEMP:  76;

SARANAC LAKE   SUNNY     80  60  50 W9        30.12F
6HR MIN TEMP:  47; 6HR MAX TEMP:  81;

MASSENA        SUNNY     84  67  56 SW10      30.06F
6HR MIN TEMP:  57; 6HR MAX TEMP:  85;

OGDENSBURG*    FAIR      88  65  46 SW6       30.06F
6HR MIN TEMP:  59; 6HR MAX TEMP:  87;

POTSDAM*       SUNNY     82  66  57 W8        30.07F
STARK FALLS*     N/A     81 N/A N/A W5          N/A
WATERTOWN      SUNNY     81  54  39 SW13      30.10F
6HR MIN TEMP:  59; 6HR MAX TEMP:  81;

FT DRUM        SUNNY     83  56  40 W7        30.10F
6HR MIN TEMP:  60; 6HR MAX TEMP:  83;

ALBANY         MOSUNNY   81  53  37 N7        30.07F
6HR MIN TEMP:  58; 6HR MAX TEMP:  81;

GLENS FALLS    SUNNY     79  53  40 NE6       30.06F
6HR MIN TEMP:  56; 6HR MAX TEMP:  80;


$$
NHZ002-005-011-231900-
_____NEW HAMPSHIRE_____


CITY           SKY/WX    TMP DP  RH WIND       PRES   REMARKS
LEBANON        SUNNY     82  55  39 NE3       30.05F
6HR MIN TEMP:  53; 6HR MAX TEMP:  82;

KEENE          SUNNY     85  51  31 NW9       30.04F
6HR MIN TEMP:  58; 6HR MAX TEMP:  85;

MT WASHINGTON  MOSUNNY   59  48  67 N15         N/A
6HR MIN TEMP:  55; 6HR MAX TEMP:  60;

PLYMOUTH       FAIR      85  47  26 W6        30.02F
6HR MIN TEMP:  49; 6HR MAX TEMP:  83;

WHITEFIELD     SUNNY     79  49  34 CALM      30.08F
6HR MIN TEMP:  47; 6HR MAX TEMP:  79;


$$

_____REGIONAL QUEBEC LOCATIONS_____


CITY           SKY/WX    TMP DP  RH WIND       PRES   REMARKS
MONTREAL       PTSUNNY   82  63  51 S9        30.02F
QUEBEC CITY    MOSUNNY   77  64  65 SW9       30.00F
SHERBROOKE     MOSUNNY   79  59  50 SW6       30.06F

_____REGIONAL ONTARIO LOCATIONS_____


CITY           SKY/WX    TMP DP  RH WIND       PRES   REMARKS
OTTAWA         PTSUNNY   84  64  51 W10       30.06S

______KEY______
VSB  - VISIBILITY IN MILES
WCI  - WIND CHILL INDEX
HX   - HEAT INDEX
$$
NNNN




USA.gov is the U.S. government's official web portal to all federal, state and local government web resources and services.